Year,Month,Day,Hour,Minute,Value (Times are PST for temperature in C)
2017,06,11,00,00,12.40
2017,06,11,00,01,12.40
2017,06,11,00,02,12.40
2017,06,11,00,03,12.40
2017,06,11,00,04,12.40
2017,06,11,00,05,12.40
2017,06,11,00,06,12.40
2017,06,11,00,07,12.40
2017,06,11,00,08,12.40
2017,06,11,00,09,12.40
2017,06,11,00,10,12.40
2017,06,11,00,11,12.40
2017,06,11,00,12,12.40
2017,06,11,00,13,12.40
2017,06,11,00,14,12.40
2017,06,11,00,15,12.40
2017,06,11,00,16,12.40
2017,06,11,00,17,12.30
2017,06,11,00,18,12.30
2017,06,11,00,19,12.30
2017,06,11,00,20,12.30
2017,06,11,00,21,12.30
2017,06,11,00,22,12.20
2017,06,11,00,23,12.20
2017,06,11,00,24,12.10
2017,06,11,00,25,12.10
2017,06,11,00,26,12.00
2017,06,11,00,27,12.00
2017,06,11,00,28,11.90
2017,06,11,00,29,11.90
2017,06,11,00,30,11.90
2017,06,11,00,31,11.80
2017,06,11,00,32,11.80
2017,06,11,00,33,11.80
2017,06,11,00,34,11.80
2017,06,11,00,35,11.80
2017,06,11,00,36,11.80
2017,06,11,00,37,11.80
2017,06,11,00,38,11.70
2017,06,11,00,39,11.70
2017,06,11,00,40,11.70
2017,06,11,00,41,11.70
2017,06,11,00,42,11.60
2017,06,11,00,43,11.60
2017,06,11,00,44,11.60
2017,06,11,00,45,11.50
2017,06,11,00,46,11.50
2017,06,11,00,47,11.40
2017,06,11,00,48,11.40
2017,06,11,00,49,11.40
2017,06,11,00,50,11.30
2017,06,11,00,51,11.30
2017,06,11,00,52,11.30
2017,06,11,00,53,11.30
2017,06,11,00,54,11.30
2017,06,11,00,55,11.30
2017,06,11,00,56,11.20
2017,06,11,00,57,11.20
2017,06,11,00,58,11.20
2017,06,11,00,59,11.20
2017,06,11,01,00,11.20
2017,06,11,01,01,11.20
2017,06,11,01,02,11.10
2017,06,11,01,03,11.10
2017,06,11,01,04,11.10
2017,06,11,01,05,11.10
2017,06,11,01,06,11.10
2017,06,11,01,07,11.10
2017,06,11,01,08,11.10
2017,06,11,01,09,11.10
2017,06,11,01,10,11.10
2017,06,11,01,11,11.10
2017,06,11,01,12,11.10
2017,06,11,01,13,11.10
2017,06,11,01,14,11.10
2017,06,11,01,15,11.10
2017,06,11,01,16,11.10
2017,06,11,01,17,11.00
2017,06,11,01,18,11.00
2017,06,11,01,19,11.00
2017,06,11,01,20,11.00
2017,06,11,01,21,11.00
2017,06,11,01,22,11.00
2017,06,11,01,23,10.90
2017,06,11,01,24,10.90
2017,06,11,01,25,10.90
2017,06,11,01,26,10.90
2017,06,11,01,27,10.90
2017,06,11,01,28,10.90
2017,06,11,01,29,10.90
2017,06,11,01,30,10.90
2017,06,11,01,31,10.90
2017,06,11,01,32,10.90
2017,06,11,01,33,10.90
2017,06,11,01,34,10.90
2017,06,11,01,35,10.90
2017,06,11,01,36,10.90
2017,06,11,01,37,10.90
2017,06,11,01,38,10.90
2017,06,11,01,39,10.90
2017,06,11,01,40,10.90
2017,06,11,01,41,10.90
2017,06,11,01,42,10.90
2017,06,11,01,43,10.80
2017,06,11,01,44,10.80
2017,06,11,01,45,10.80
2017,06,11,01,46,10.80
2017,06,11,01,47,10.80
2017,06,11,01,48,10.70
2017,06,11,01,49,10.70
2017,06,11,01,50,10.70
2017,06,11,01,51,10.70
2017,06,11,01,52,10.70
2017,06,11,01,53,10.60
2017,06,11,01,54,10.60
2017,06,11,01,55,10.60
2017,06,11,01,56,10.60
2017,06,11,01,57,10.50
2017,06,11,01,58,10.50
2017,06,11,01,59,10.50
2017,06,11,02,00,10.40
2017,06,11,02,01,10.40
2017,06,11,02,02,10.40
2017,06,11,02,03,10.30
2017,06,11,02,04,10.30
2017,06,11,02,05,10.30
2017,06,11,02,06,10.30
2017,06,11,02,07,10.30
2017,06,11,02,08,10.20
2017,06,11,02,09,10.20
2017,06,11,02,10,10.20
2017,06,11,02,11,10.20
2017,06,11,02,12,10.20
2017,06,11,02,13,10.10
2017,06,11,02,14,10.10
2017,06,11,02,15,10.10
2017,06,11,02,16,10.10
2017,06,11,02,17,10.10
2017,06,11,02,18,10.10
2017,06,11,02,19,10.10
2017,06,11,02,20,10.00
2017,06,11,02,21,10.00
2017,06,11,02,22,10.00
2017,06,11,02,23,10.00
2017,06,11,02,24,10.00
2017,06,11,02,25,10.00
2017,06,11,02,26,10.00
2017,06,11,02,27,10.00
2017,06,11,02,28,10.00
2017,06,11,02,29,10.00
2017,06,11,02,30,10.00
2017,06,11,02,31,10.00
2017,06,11,02,32,10.00
2017,06,11,02,33,10.00
2017,06,11,02,34,10.00
2017,06,11,02,35,10.00
2017,06,11,02,36,10.00
2017,06,11,02,37,10.00
2017,06,11,02,38,10.00
2017,06,11,02,39,10.00
2017,06,11,02,40,10.00
2017,06,11,02,41,10.00
2017,06,11,02,42,10.00
2017,06,11,02,43,10.00
2017,06,11,02,44,10.00
2017,06,11,02,45,10.00
2017,06,11,02,46,9.90
2017,06,11,02,47,9.90
2017,06,11,02,48,9.90
2017,06,11,02,49,9.90
2017,06,11,02,50,9.90
2017,06,11,02,51,9.90
2017,06,11,02,52,9.90
2017,06,11,02,53,9.90
2017,06,11,02,54,9.90
2017,06,11,02,55,9.90
2017,06,11,02,56,9.90
2017,06,11,02,57,9.90
2017,06,11,02,58,9.90
2017,06,11,02,59,9.90
2017,06,11,03,00,9.90
2017,06,11,03,01,9.90
2017,06,11,03,02,9.90
2017,06,11,03,03,9.90
2017,06,11,03,04,9.90
2017,06,11,03,05,9.90
2017,06,11,03,06,9.90
2017,06,11,03,07,9.90
2017,06,11,03,08,9.90
2017,06,11,03,09,9.90
2017,06,11,03,10,9.90
2017,06,11,03,11,9.90
2017,06,11,03,12,9.90
2017,06,11,03,13,9.90
2017,06,11,03,14,9.90
2017,06,11,03,15,9.90
2017,06,11,03,16,9.90
2017,06,11,03,17,9.90
2017,06,11,03,18,9.90
2017,06,11,03,19,9.90
2017,06,11,03,20,9.90
2017,06,11,03,21,9.90
2017,06,11,03,22,9.90
2017,06,11,03,23,9.90
2017,06,11,03,24,9.90
2017,06,11,03,25,9.90
2017,06,11,03,26,9.90
2017,06,11,03,27,9.90
2017,06,11,03,28,9.90
2017,06,11,03,29,9.90
2017,06,11,03,30,9.90
2017,06,11,03,31,9.90
2017,06,11,03,32,9.90
2017,06,11,03,33,9.90
2017,06,11,03,34,9.90
2017,06,11,03,35,9.90
2017,06,11,03,36,9.90
2017,06,11,03,37,9.90
2017,06,11,03,38,9.90
2017,06,11,03,39,9.90
2017,06,11,03,40,9.90
2017,06,11,03,41,9.90
2017,06,11,03,42,9.90
2017,06,11,03,43,9.90
2017,06,11,03,44,9.90
2017,06,11,03,45,9.90
2017,06,11,03,46,9.90
2017,06,11,03,47,9.90
2017,06,11,03,48,9.90
2017,06,11,03,49,9.90
2017,06,11,03,50,9.90
2017,06,11,03,51,9.90
2017,06,11,03,52,9.90
2017,06,11,03,53,9.80
2017,06,11,03,54,9.80
2017,06,11,03,55,9.80
2017,06,11,03,56,9.80
2017,06,11,03,57,9.80
2017,06,11,03,58,9.80
2017,06,11,03,59,9.80
2017,06,11,04,00,9.70
2017,06,11,04,01,9.70
2017,06,11,04,02,9.60
2017,06,11,04,03,9.60
2017,06,11,04,04,9.50
2017,06,11,04,05,9.50
2017,06,11,04,06,9.40
2017,06,11,04,07,9.40
2017,06,11,04,08,9.30
2017,06,11,04,09,9.30
2017,06,11,04,10,9.30
2017,06,11,04,11,9.20
2017,06,11,04,12,9.20
2017,06,11,04,13,9.20
2017,06,11,04,14,9.10
2017,06,11,04,15,9.10
2017,06,11,04,16,9.10
2017,06,11,04,17,9.10
2017,06,11,04,18,9.10
2017,06,11,04,19,9.00
2017,06,11,04,20,9.00
2017,06,11,04,21,9.00
2017,06,11,04,22,8.90
2017,06,11,04,23,8.90
2017,06,11,04,24,8.90
2017,06,11,04,25,8.90
2017,06,11,04,26,8.90
2017,06,11,04,27,8.90
2017,06,11,04,28,8.90
2017,06,11,04,29,8.90
2017,06,11,04,30,8.90
2017,06,11,04,31,8.90
2017,06,11,04,32,8.90
2017,06,11,04,33,8.80
2017,06,11,04,34,8.80
2017,06,11,04,35,8.80
2017,06,11,04,36,8.80
2017,06,11,04,37,8.80
2017,06,11,04,38,8.80
2017,06,11,04,39,8.80
2017,06,11,04,40,8.80
2017,06,11,04,41,8.70
2017,06,11,04,42,8.70
2017,06,11,04,43,8.70
2017,06,11,04,44,8.70
2017,06,11,04,45,8.70
2017,06,11,04,46,8.70
2017,06,11,04,47,8.60
2017,06,11,04,48,8.60
2017,06,11,04,49,8.60
2017,06,11,04,50,8.60
2017,06,11,04,51,8.60
2017,06,11,04,52,8.60
2017,06,11,04,53,8.60
2017,06,11,04,54,8.60
2017,06,11,04,55,8.60
2017,06,11,04,56,8.60
2017,06,11,04,57,8.60
2017,06,11,04,58,8.60
2017,06,11,04,59,8.60
2017,06,11,05,00,8.60
2017,06,11,05,01,8.50
2017,06,11,05,02,8.50
2017,06,11,05,03,8.50
2017,06,11,05,04,8.50
2017,06,11,05,05,8.50
2017,06,11,05,06,8.50
2017,06,11,05,07,8.50
2017,06,11,05,08,8.50
2017,06,11,05,09,8.50
2017,06,11,05,10,8.50
2017,06,11,05,11,8.50
2017,06,11,05,12,8.50
2017,06,11,05,13,8.50
2017,06,11,05,14,8.50
2017,06,11,05,15,8.50
2017,06,11,05,16,8.50
2017,06,11,05,17,8.50
2017,06,11,05,18,8.50
2017,06,11,05,19,8.50
2017,06,11,05,20,8.50
2017,06,11,05,21,8.50
2017,06,11,05,22,8.40
2017,06,11,05,23,8.50
2017,06,11,05,24,8.50
2017,06,11,05,25,8.50
2017,06,11,05,26,8.50
2017,06,11,05,27,8.50
2017,06,11,05,28,8.50
2017,06,11,05,29,8.50
2017,06,11,05,30,8.50
2017,06,11,05,31,8.50
2017,06,11,05,32,8.50
2017,06,11,05,33,8.50
2017,06,11,05,34,8.50
2017,06,11,05,35,8.60
2017,06,11,05,36,8.60
2017,06,11,05,37,8.60
2017,06,11,05,38,8.60
2017,06,11,05,39,8.60
2017,06,11,05,40,8.60
2017,06,11,05,41,8.60
2017,06,11,05,42,8.60
2017,06,11,05,43,8.60
2017,06,11,05,44,8.60
2017,06,11,05,45,8.60
2017,06,11,05,46,8.60
2017,06,11,05,47,8.60
2017,06,11,05,48,8.60
2017,06,11,05,49,8.70
2017,06,11,05,50,8.70
2017,06,11,05,51,8.70
2017,06,11,05,52,8.70
2017,06,11,05,53,8.70
2017,06,11,05,54,8.80
2017,06,11,05,55,8.80
2017,06,11,05,56,8.80
2017,06,11,05,57,8.80
2017,06,11,05,58,8.90
2017,06,11,05,59,8.90
2017,06,11,06,00,8.90
2017,06,11,06,01,9.00
2017,06,11,06,02,9.00
2017,06,11,06,03,9.10
2017,06,11,06,04,9.10
2017,06,11,06,05,9.20
2017,06,11,06,06,9.20
2017,06,11,06,07,9.30
2017,06,11,06,08,9.30
2017,06,11,06,09,9.40
2017,06,11,06,10,9.50
2017,06,11,06,11,9.60
2017,06,11,06,12,9.60
2017,06,11,06,13,9.70
2017,06,11,06,14,9.80
2017,06,11,06,15,9.80
2017,06,11,06,16,9.80
2017,06,11,06,17,9.90
2017,06,11,06,18,9.90
2017,06,11,06,19,10.00
2017,06,11,06,20,10.00
2017,06,11,06,21,10.00
2017,06,11,06,22,10.10
2017,06,11,06,23,10.10
2017,06,11,06,24,10.20
2017,06,11,06,25,10.20
2017,06,11,06,26,10.30
2017,06,11,06,27,10.30
2017,06,11,06,28,10.40
2017,06,11,06,29,10.40
2017,06,11,06,30,10.50
2017,06,11,06,31,10.50
2017,06,11,06,32,10.50
2017,06,11,06,33,10.60
2017,06,11,06,34,10.60
2017,06,11,06,35,10.60
2017,06,11,06,36,10.70
2017,06,11,06,37,10.70
2017,06,11,06,38,10.80
2017,06,11,06,39,10.80
2017,06,11,06,40,10.80
2017,06,11,06,41,10.90
2017,06,11,06,42,10.90
2017,06,11,06,43,11.00
2017,06,11,06,44,11.00
2017,06,11,06,45,11.10
2017,06,11,06,46,11.10
2017,06,11,06,47,11.20
2017,06,11,06,48,11.20
2017,06,11,06,49,11.20
2017,06,11,06,50,11.30
2017,06,11,06,51,11.30
2017,06,11,06,52,11.30
2017,06,11,06,53,11.40
2017,06,11,06,54,11.40
2017,06,11,06,55,11.50
2017,06,11,06,56,11.50
2017,06,11,06,57,11.60
2017,06,11,06,58,11.60
2017,06,11,06,59,11.60
2017,06,11,07,00,11.60
2017,06,11,07,01,11.70
2017,06,11,07,02,11.70
2017,06,11,07,03,11.70
2017,06,11,07,04,11.80
2017,06,11,07,05,11.80
2017,06,11,07,06,11.80
2017,06,11,07,07,11.80
2017,06,11,07,08,11.90
2017,06,11,07,09,11.90
2017,06,11,07,10,12.00
2017,06,11,07,11,12.00
2017,06,11,07,12,12.00
2017,06,11,07,13,12.10
2017,06,11,07,14,12.10
2017,06,11,07,15,12.20
2017,06,11,07,16,12.20
2017,06,11,07,17,12.30
2017,06,11,07,18,12.40
2017,06,11,07,19,12.40
2017,06,11,07,20,12.50
2017,06,11,07,21,12.50
2017,06,11,07,22,12.60
2017,06,11,07,23,12.60
2017,06,11,07,24,12.60
2017,06,11,07,25,12.60
2017,06,11,07,26,12.70
2017,06,11,07,27,12.70
2017,06,11,07,28,12.70
2017,06,11,07,29,12.80
2017,06,11,07,30,12.80
2017,06,11,07,31,12.90
2017,06,11,07,32,13.00
2017,06,11,07,33,13.10
2017,06,11,07,34,13.10
2017,06,11,07,35,13.10
2017,06,11,07,36,13.20
2017,06,11,07,37,13.20
2017,06,11,07,38,13.20
2017,06,11,07,39,13.20
2017,06,11,07,40,13.20
2017,06,11,07,41,13.20
2017,06,11,07,42,13.30
2017,06,11,07,43,13.30
2017,06,11,07,44,13.40
2017,06,11,07,45,13.40
2017,06,11,07,46,13.40
2017,06,11,07,47,13.50
2017,06,11,07,48,13.50
2017,06,11,07,49,13.50
2017,06,11,07,50,13.60
2017,06,11,07,51,13.60
2017,06,11,07,52,13.60
2017,06,11,07,53,13.70
2017,06,11,07,54,13.80
2017,06,11,07,55,13.80
2017,06,11,07,56,13.80
2017,06,11,07,57,13.80
2017,06,11,07,58,13.80
2017,06,11,07,59,13.80
2017,06,11,08,00,13.80
2017,06,11,08,01,13.80
2017,06,11,08,02,13.90
2017,06,11,08,03,13.90
2017,06,11,08,04,13.90
2017,06,11,08,05,14.00
2017,06,11,08,06,14.10
2017,06,11,08,07,14.10
2017,06,11,08,08,14.20
2017,06,11,08,09,14.20
2017,06,11,08,10,14.30
2017,06,11,08,11,14.30
2017,06,11,08,12,14.30
2017,06,11,08,13,14.30
2017,06,11,08,14,14.30
2017,06,11,08,15,14.40
2017,06,11,08,16,14.40
2017,06,11,08,17,14.40
2017,06,11,08,18,14.40
2017,06,11,08,19,14.40
2017,06,11,08,20,14.40
2017,06,11,08,21,14.40
2017,06,11,08,22,14.40
2017,06,11,08,23,14.40
2017,06,11,08,24,14.40
2017,06,11,08,25,14.40
2017,06,11,08,26,14.40
2017,06,11,08,27,14.40
2017,06,11,08,28,14.30
2017,06,11,08,29,14.30
2017,06,11,08,30,14.30
2017,06,11,08,31,14.20
2017,06,11,08,32,14.20
2017,06,11,08,33,14.20
2017,06,11,08,34,14.20
2017,06,11,08,35,14.20
2017,06,11,08,36,14.20
2017,06,11,08,37,14.30
2017,06,11,08,38,14.30
2017,06,11,08,39,14.40
2017,06,11,08,40,14.40
2017,06,11,08,41,14.40
2017,06,11,08,42,14.40
2017,06,11,08,43,14.40
2017,06,11,08,44,14.40
2017,06,11,08,45,14.40
2017,06,11,08,46,14.40
2017,06,11,08,47,14.50
2017,06,11,08,48,14.60
2017,06,11,08,49,14.60
2017,06,11,08,50,14.70
2017,06,11,08,51,14.70
2017,06,11,08,52,14.60
2017,06,11,08,53,14.60
2017,06,11,08,54,14.60
2017,06,11,08,55,14.60
2017,06,11,08,56,14.60
2017,06,11,08,57,14.60
2017,06,11,08,58,14.60
2017,06,11,08,59,14.60
2017,06,11,09,00,14.70
2017,06,11,09,01,14.70
2017,06,11,09,02,14.80
2017,06,11,09,03,14.80
2017,06,11,09,04,14.90
2017,06,11,09,05,15.00
2017,06,11,09,06,15.10
2017,06,11,09,07,15.10
2017,06,11,09,08,15.10
2017,06,11,09,09,15.10
2017,06,11,09,10,15.20
2017,06,11,09,11,15.20
2017,06,11,09,12,15.20
2017,06,11,09,13,15.20
2017,06,11,09,14,15.20
2017,06,11,09,15,15.30
2017,06,11,09,16,15.30
2017,06,11,09,17,15.40
2017,06,11,09,18,15.40
2017,06,11,09,19,15.40
2017,06,11,09,20,15.40
2017,06,11,09,21,15.40
2017,06,11,09,22,15.40
2017,06,11,09,23,15.40
2017,06,11,09,24,15.40
2017,06,11,09,25,15.40
2017,06,11,09,26,15.40
2017,06,11,09,27,15.50
2017,06,11,09,28,15.50
2017,06,11,09,29,15.60
2017,06,11,09,30,15.60
2017,06,11,09,31,15.70
2017,06,11,09,32,15.70
2017,06,11,09,33,15.60
2017,06,11,09,34,15.60
2017,06,11,09,35,15.60
2017,06,11,09,36,15.50
2017,06,11,09,37,15.50
2017,06,11,09,38,15.40
2017,06,11,09,39,15.30
2017,06,11,09,40,15.30
2017,06,11,09,41,15.30
2017,06,11,09,42,15.20
2017,06,11,09,43,15.20
2017,06,11,09,44,15.10
2017,06,11,09,45,15.10
2017,06,11,09,46,15.10
2017,06,11,09,47,15.10
2017,06,11,09,48,15.10
2017,06,11,09,49,15.10
2017,06,11,09,50,15.00
2017,06,11,09,51,15.00
2017,06,11,09,52,14.90
2017,06,11,09,53,14.90
2017,06,11,09,54,14.90
2017,06,11,09,55,14.90
2017,06,11,09,56,14.80
2017,06,11,09,57,14.70
2017,06,11,09,58,14.60
2017,06,11,09,59,14.50
2017,06,11,10,00,14.40
2017,06,11,10,01,14.40
2017,06,11,10,02,14.30
2017,06,11,10,03,14.30
2017,06,11,10,04,14.40
2017,06,11,10,05,14.50
2017,06,11,10,06,14.50
2017,06,11,10,07,14.60
2017,06,11,10,08,14.70
2017,06,11,10,09,14.80
2017,06,11,10,10,15.00
2017,06,11,10,11,15.20
2017,06,11,10,12,15.30
2017,06,11,10,13,15.40
2017,06,11,10,14,15.40
2017,06,11,10,15,15.40
2017,06,11,10,16,15.30
2017,06,11,10,17,15.30
2017,06,11,10,18,15.40
2017,06,11,10,19,15.50
2017,06,11,10,20,15.50
2017,06,11,10,21,15.50
2017,06,11,10,22,15.60
2017,06,11,10,23,15.70
2017,06,11,10,24,15.80
2017,06,11,10,25,15.80
2017,06,11,10,26,15.80
2017,06,11,10,27,15.90
2017,06,11,10,28,15.90
2017,06,11,10,29,16.00
2017,06,11,10,30,16.10
2017,06,11,10,31,16.10
2017,06,11,10,32,16.20
2017,06,11,10,33,16.30
2017,06,11,10,34,16.40
2017,06,11,10,35,16.50
2017,06,11,10,36,16.60
2017,06,11,10,37,16.60
2017,06,11,10,38,16.60
2017,06,11,10,39,16.50
2017,06,11,10,40,16.40
2017,06,11,10,41,16.40
2017,06,11,10,42,16.40
2017,06,11,10,43,16.50
2017,06,11,10,44,16.60
2017,06,11,10,45,16.60
2017,06,11,10,46,16.60
2017,06,11,10,47,16.60
2017,06,11,10,48,16.50
2017,06,11,10,49,16.50
2017,06,11,10,50,16.60
2017,06,11,10,51,16.70
2017,06,11,10,52,16.80
2017,06,11,10,53,16.80
2017,06,11,10,54,16.90
2017,06,11,10,55,17.00
2017,06,11,10,56,17.10
2017,06,11,10,57,17.10
2017,06,11,10,58,17.10
2017,06,11,10,59,17.00
2017,06,11,11,00,16.90
2017,06,11,11,01,16.80
2017,06,11,11,02,16.70
2017,06,11,11,03,16.70
2017,06,11,11,04,16.70
2017,06,11,11,05,16.70
2017,06,11,11,06,16.60
2017,06,11,11,07,16.50
2017,06,11,11,08,16.40
2017,06,11,11,09,16.20
2017,06,11,11,10,16.10
2017,06,11,11,11,16.10
2017,06,11,11,12,16.10
2017,06,11,11,13,16.10
2017,06,11,11,14,16.10
2017,06,11,11,15,16.00
2017,06,11,11,16,16.00
2017,06,11,11,17,16.00
2017,06,11,11,18,16.00
2017,06,11,11,19,15.90
2017,06,11,11,20,15.90
2017,06,11,11,21,15.90
2017,06,11,11,22,15.90
2017,06,11,11,23,15.80
2017,06,11,11,24,15.80
2017,06,11,11,25,15.80
2017,06,11,11,26,15.70
2017,06,11,11,27,15.70
2017,06,11,11,28,15.70
2017,06,11,11,29,15.80
2017,06,11,11,30,15.80
2017,06,11,11,31,15.80
2017,06,11,11,32,15.70
2017,06,11,11,33,15.70
2017,06,11,11,34,15.70
2017,06,11,11,35,15.70
2017,06,11,11,36,15.70
2017,06,11,11,37,15.60
2017,06,11,11,38,15.60
2017,06,11,11,39,15.60
2017,06,11,11,40,15.60
2017,06,11,11,41,15.70
2017,06,11,11,42,15.70
2017,06,11,11,43,15.70
2017,06,11,11,44,15.70
2017,06,11,11,45,15.70
2017,06,11,11,46,15.70
2017,06,11,11,47,15.70
2017,06,11,11,48,15.70
2017,06,11,11,49,15.70
2017,06,11,11,50,15.70
2017,06,11,11,51,15.70
2017,06,11,11,52,15.70
2017,06,11,11,53,15.70
2017,06,11,11,54,15.70
2017,06,11,11,55,15.70
2017,06,11,11,56,15.70
2017,06,11,11,57,15.80
2017,06,11,11,58,15.80
2017,06,11,11,59,15.80
2017,06,11,12,00,15.80
2017,06,11,12,01,15.90
2017,06,11,12,02,15.80
2017,06,11,12,03,15.80
2017,06,11,12,04,15.80
2017,06,11,12,05,15.80
2017,06,11,12,06,15.80
2017,06,11,12,07,15.90
2017,06,11,12,08,16.00
2017,06,11,12,09,16.00
2017,06,11,12,10,16.00
2017,06,11,12,11,16.00
2017,06,11,12,12,16.00
2017,06,11,12,13,15.90
2017,06,11,12,14,15.90
2017,06,11,12,15,16.00
2017,06,11,12,16,16.00
2017,06,11,12,17,16.00
2017,06,11,12,18,16.10
2017,06,11,12,19,16.10
2017,06,11,12,20,16.20
2017,06,11,12,21,16.10
2017,06,11,12,22,16.10
2017,06,11,12,23,16.00
2017,06,11,12,24,15.90
2017,06,11,12,25,15.80
2017,06,11,12,26,15.80
2017,06,11,12,27,15.70
2017,06,11,12,28,15.70
2017,06,11,12,29,15.60
2017,06,11,12,30,15.60
2017,06,11,12,31,15.60
2017,06,11,12,32,15.60
2017,06,11,12,33,15.60
2017,06,11,12,34,15.70
2017,06,11,12,35,15.70
2017,06,11,12,36,15.80
2017,06,11,12,37,15.90
2017,06,11,12,38,16.00
2017,06,11,12,39,16.10
2017,06,11,12,40,16.20
2017,06,11,12,41,16.10
2017,06,11,12,42,16.20
2017,06,11,12,43,16.30
2017,06,11,12,44,16.30
2017,06,11,12,45,16.40
2017,06,11,12,46,16.50
2017,06,11,12,47,16.50
2017,06,11,12,48,16.40
2017,06,11,12,49,16.40
2017,06,11,12,50,16.40
2017,06,11,12,51,16.40
2017,06,11,12,52,16.40
2017,06,11,12,53,16.40
2017,06,11,12,54,16.40
2017,06,11,12,55,16.40
2017,06,11,12,56,16.50
2017,06,11,12,57,16.60
2017,06,11,12,58,16.60
2017,06,11,12,59,16.70
2017,06,11,13,00,16.70
2017,06,11,13,01,16.70
2017,06,11,13,02,16.70
2017,06,11,13,03,16.70
2017,06,11,13,04,16.70
2017,06,11,13,05,16.70
2017,06,11,13,06,16.70
2017,06,11,13,07,16.70
2017,06,11,13,08,16.70
2017,06,11,13,09,16.70
2017,06,11,13,10,16.70
2017,06,11,13,11,16.70
2017,06,11,13,12,16.70
2017,06,11,13,13,16.70
2017,06,11,13,14,16.70
2017,06,11,13,15,16.70
2017,06,11,13,16,16.70
2017,06,11,13,17,16.70
2017,06,11,13,18,16.70
2017,06,11,13,19,16.70
2017,06,11,13,20,16.70
2017,06,11,13,21,16.70
2017,06,11,13,22,16.70
2017,06,11,13,23,16.60
2017,06,11,13,24,16.60
2017,06,11,13,25,16.60
2017,06,11,13,26,16.60
2017,06,11,13,27,16.50
2017,06,11,13,28,16.40
2017,06,11,13,29,16.50
2017,06,11,13,30,16.50
2017,06,11,13,31,16.50
2017,06,11,13,32,16.60
2017,06,11,13,33,16.60
2017,06,11,13,34,16.60
2017,06,11,13,35,16.70
2017,06,11,13,36,16.70
2017,06,11,13,37,16.70
2017,06,11,13,38,16.70
2017,06,11,13,39,16.70
2017,06,11,13,40,16.70
2017,06,11,13,41,16.70
2017,06,11,13,42,16.70
2017,06,11,13,43,16.70
2017,06,11,13,44,16.60
2017,06,11,13,45,16.70
2017,06,11,13,46,16.60
2017,06,11,13,47,16.60
2017,06,11,13,48,16.60
2017,06,11,13,49,16.60
2017,06,11,13,50,16.70
2017,06,11,13,51,16.70
2017,06,11,13,52,16.70
2017,06,11,13,53,16.70
2017,06,11,13,54,16.60
2017,06,11,13,55,16.60
2017,06,11,13,56,16.50
2017,06,11,13,57,16.50
2017,06,11,13,58,16.50
2017,06,11,13,59,16.50
2017,06,11,14,00,16.40
2017,06,11,14,01,16.40
2017,06,11,14,02,16.50
2017,06,11,14,03,16.50
2017,06,11,14,04,16.50
2017,06,11,14,05,16.40
2017,06,11,14,06,16.50
2017,06,11,14,07,16.50
2017,06,11,14,08,16.40
2017,06,11,14,09,16.40
2017,06,11,14,10,16.40
2017,06,11,14,11,16.40
2017,06,11,14,12,16.50
2017,06,11,14,13,16.50
2017,06,11,14,14,16.60
2017,06,11,14,15,16.60
2017,06,11,14,16,16.50
2017,06,11,14,17,16.50
2017,06,11,14,18,16.40
2017,06,11,14,19,16.50
2017,06,11,14,20,16.50
2017,06,11,14,21,16.40
2017,06,11,14,22,16.40
2017,06,11,14,23,16.40
2017,06,11,14,24,16.40
2017,06,11,14,25,16.40
2017,06,11,14,26,16.40
2017,06,11,14,27,16.50
2017,06,11,14,28,16.50
2017,06,11,14,29,16.60
2017,06,11,14,30,16.70
2017,06,11,14,31,16.80
2017,06,11,14,32,16.80
2017,06,11,14,33,16.90
2017,06,11,14,34,16.90
2017,06,11,14,35,16.90
2017,06,11,14,36,16.90
2017,06,11,14,37,16.90
2017,06,11,14,38,16.90
2017,06,11,14,39,16.90
2017,06,11,14,40,16.90
2017,06,11,14,41,16.90
2017,06,11,14,42,16.90
2017,06,11,14,43,16.90
2017,06,11,14,44,16.90
2017,06,11,14,45,16.90
2017,06,11,14,46,16.90
2017,06,11,14,47,16.90
2017,06,11,14,48,17.00
2017,06,11,14,49,17.00
2017,06,11,14,50,17.00
2017,06,11,14,51,17.00
2017,06,11,14,52,17.00
2017,06,11,14,53,17.00
2017,06,11,14,54,17.10
2017,06,11,14,55,17.10
2017,06,11,14,56,17.10
2017,06,11,14,57,17.20
2017,06,11,14,58,17.30
2017,06,11,14,59,17.40
2017,06,11,15,00,17.40
2017,06,11,15,01,17.40
2017,06,11,15,02,17.50
2017,06,11,15,03,17.60
2017,06,11,15,04,17.70
2017,06,11,15,05,17.80
2017,06,11,15,06,17.80
2017,06,11,15,07,17.80
2017,06,11,15,08,17.80
2017,06,11,15,09,17.80
2017,06,11,15,10,17.70
2017,06,11,15,11,17.70
2017,06,11,15,12,17.70
2017,06,11,15,13,17.80
2017,06,11,15,14,17.80
2017,06,11,15,15,17.80
2017,06,11,15,16,17.80
2017,06,11,15,17,17.80
2017,06,11,15,18,17.80
2017,06,11,15,19,17.80
2017,06,11,15,20,17.80
2017,06,11,15,21,17.80
2017,06,11,15,22,17.80
2017,06,11,15,23,17.80
2017,06,11,15,24,17.80
2017,06,11,15,25,17.80
2017,06,11,15,26,17.80
2017,06,11,15,27,17.90
2017,06,11,15,28,17.90
2017,06,11,15,29,18.00
2017,06,11,15,30,18.00
2017,06,11,15,31,18.00
2017,06,11,15,32,18.00
2017,06,11,15,33,18.00
2017,06,11,15,34,18.00
2017,06,11,15,35,18.10
2017,06,11,15,36,18.10
2017,06,11,15,37,18.10
2017,06,11,15,38,18.10
2017,06,11,15,39,18.10
2017,06,11,15,40,18.10
2017,06,11,15,41,18.10
2017,06,11,15,42,18.20
2017,06,11,15,43,18.30
2017,06,11,15,44,18.30
2017,06,11,15,45,18.30
2017,06,11,15,46,18.30
2017,06,11,15,47,18.30
2017,06,11,15,48,18.30
2017,06,11,15,49,18.20
2017,06,11,15,50,18.30
2017,06,11,15,51,18.30
2017,06,11,15,52,18.20
2017,06,11,15,53,18.30
2017,06,11,15,54,18.30
2017,06,11,15,55,18.40
2017,06,11,15,56,18.40
2017,06,11,15,57,18.40
2017,06,11,15,58,18.50
2017,06,11,15,59,18.40
2017,06,11,16,00,18.40
2017,06,11,16,01,18.30
2017,06,11,16,02,18.30
2017,06,11,16,03,18.20
2017,06,11,16,04,18.20
2017,06,11,16,05,18.10
2017,06,11,16,06,18.10
2017,06,11,16,07,18.10
2017,06,11,16,08,18.10
2017,06,11,16,09,18.10
2017,06,11,16,10,18.10
2017,06,11,16,11,18.10
2017,06,11,16,12,18.10
2017,06,11,16,13,18.10
2017,06,11,16,14,18.20
2017,06,11,16,15,18.20
2017,06,11,16,16,18.30
2017,06,11,16,17,18.30
2017,06,11,16,18,18.30
2017,06,11,16,19,18.30
2017,06,11,16,20,18.30
2017,06,11,16,21,18.40
2017,06,11,16,22,18.40
2017,06,11,16,23,18.40
2017,06,11,16,24,18.40
2017,06,11,16,25,18.40
2017,06,11,16,26,18.40
2017,06,11,16,27,18.40
2017,06,11,16,28,18.40
2017,06,11,16,29,18.40
2017,06,11,16,30,18.40
2017,06,11,16,31,18.40
2017,06,11,16,32,18.40
2017,06,11,16,33,18.40
2017,06,11,16,34,18.40
2017,06,11,16,35,18.40
2017,06,11,16,36,18.40
2017,06,11,16,37,18.40
2017,06,11,16,38,18.50
2017,06,11,16,39,18.50
2017,06,11,16,40,18.50
2017,06,11,16,41,18.50
2017,06,11,16,42,18.50
2017,06,11,16,43,18.50
2017,06,11,16,44,18.60
2017,06,11,16,45,18.60
2017,06,11,16,46,18.60
2017,06,11,16,47,18.60
2017,06,11,16,48,18.70
2017,06,11,16,49,18.70
2017,06,11,16,50,18.80
2017,06,11,16,51,18.70
2017,06,11,16,52,18.70
2017,06,11,16,53,18.70
2017,06,11,16,54,18.70
2017,06,11,16,55,18.60
2017,06,11,16,56,18.60
2017,06,11,16,57,18.60
2017,06,11,16,58,18.70
2017,06,11,16,59,18.80
2017,06,11,17,00,18.80
2017,06,11,17,01,18.80
2017,06,11,17,02,18.80
2017,06,11,17,03,18.80
2017,06,11,17,04,18.80
2017,06,11,17,05,18.70
2017,06,11,17,06,18.60
2017,06,11,17,07,18.60
2017,06,11,17,08,18.50
2017,06,11,17,09,18.50
2017,06,11,17,10,18.40
2017,06,11,17,11,18.40
2017,06,11,17,12,18.50
2017,06,11,17,13,18.50
2017,06,11,17,14,18.50
2017,06,11,17,15,18.60
2017,06,11,17,16,18.60
2017,06,11,17,17,18.60
2017,06,11,17,18,18.70
2017,06,11,17,19,18.70
2017,06,11,17,20,18.70
2017,06,11,17,21,18.70
2017,06,11,17,22,18.70
2017,06,11,17,23,18.70
2017,06,11,17,24,18.70
2017,06,11,17,25,18.80
2017,06,11,17,26,18.70
2017,06,11,17,27,18.70
2017,06,11,17,28,18.70